Time,TemperatureF,DewpointF,PressureIn,WindDirection,WindDirectionDegrees,WindSpeedMPH,WindSpeedGustMPH,Humidity,HourlyPrecipIn,Conditions,Clouds,dailyrainin,SoftwareType,DateUTC
2013-06-12 10:53:00,76.0,71.0,-100.00,West,260,5.0,8.0,86,-99.99,,,-99.99,,2013-06-12 14:53:00,
2013-06-12 11:01:00,76.0,71.0,-100.00,West,275,4.0,8.0,86,-99.99,,,-99.99,,2013-06-12 15:01:00,
2013-06-12 11:12:00,77.0,72.0,-100.00,WSW,240,5.0,9.0,85,-99.99,,,-99.99,,2013-06-12 15:12:00,
2013-06-12 11:23:00,77.0,71.0,-100.00,WSW,250,7.0,11.0,83,-99.99,,,-99.99,,2013-06-12 15:23:00,
2013-06-12 11:33:00,77.0,71.0,-100.00,WSW,250,6.0,11.0,82,-99.99,,,-99.99,,2013-06-12 15:33:00,
2013-06-12 11:43:00,78.0,72.0,-100.00,West,260,7.0,11.0,81,-99.99,,,-99.99,,2013-06-12 15:43:00,
2013-06-12 11:52:00,79.0,72.0,-100.00,WSW,250,7.0,11.0,79,-99.99,,,-99.99,,2013-06-12 15:52:00,
2013-06-12 12:02:00,79.0,72.0,-100.00,WSW,250,7.0,11.0,79,-99.99,,,-99.99,,2013-06-12 16:02:00,
2013-06-12 12:12:00,79.0,72.0,-100.00,WSW,245,6.0,13.0,78,-99.99,,,-99.99,,2013-06-12 16:12:00,
2013-06-12 12:22:00,79.0,72.0,-100.00,WSW,250,6.0,12.0,78,-99.99,,,-99.99,,2013-06-12 16:22:00,
2013-06-12 12:32:00,80.0,72.0,-100.00,WSW,245,8.0,12.0,77,-99.99,,,-99.99,,2013-06-12 16:32:00,
2013-06-12 12:43:00,80.0,72.0,-100.00,WSW,245,8.0,13.0,75,-99.99,,,-99.99,,2013-06-12 16:43:00,
2013-06-12 12:52:00,82.0,72.0,-100.00,WSW,240,9.0,13.0,72,-99.99,,,-99.99,,2013-06-12 16:52:00,
2013-06-12 13:01:00,82.0,72.0,-100.00,WSW,240,9.0,13.0,72,-99.99,,,-99.99,,2013-06-12 17:01:00,
2013-06-12 13:12:00,84.0,71.0,-100.00,WSW,240,9.0,16.0,66,-99.99,,,-99.99,,2013-06-12 17:12:00,
2013-06-12 13:23:00,85.0,71.0,-100.00,SW,230,9.0,14.0,62,-99.99,,,-99.99,,2013-06-12 17:23:00,
2013-06-12 13:33:00,85.0,70.0,-100.00,WSW,240,11.0,17.0,62,-99.99,,,-99.99,,2013-06-12 17:33:00,
2013-06-12 13:42:00,85.0,70.0,-100.00,West,280,8.0,17.0,61,-99.99,,,-99.99,,2013-06-12 17:42:00,
2013-06-12 13:52:00,85.0,70.0,-100.00,WSW,255,7.0,14.0,60,-99.99,,,-99.99,,2013-06-12 17:52:00,
2013-06-12 14:02:00,85.0,70.0,-100.00,WSW,255,7.0,14.0,60,-99.99,,,-99.99,,2013-06-12 18:02:00,
2013-06-12 17:33:00,85.0,70.0,-100.00,WSW,250,11.0,17.0,61,-99.99,,,-99.99,,2013-06-12 21:33:00,
2013-06-12 17:43:00,85.0,71.0,-100.00,WSW,240,9.0,16.0,61,-99.99,,,-99.99,,2013-06-12 21:43:00,
2013-06-12 17:52:00,84.0,70.0,-100.00,WSW,240,9.0,17.0,64,-99.99,,,-99.99,,2013-06-12 21:52:00,
2013-06-12 18:01:00,84.0,70.0,-100.00,WSW,240,9.0,17.0,64,-99.99,,,-99.99,,2013-06-12 22:01:00,
2013-06-12 18:11:00,85.0,71.0,-100.00,WSW,245,10.0,17.0,63,-99.99,,,-99.99,,2013-06-12 22:11:00,
2013-06-12 18:22:00,86.0,72.0,-100.00,WSW,240,11.0,16.0,63,-99.99,,,-99.99,,2013-06-12 22:22:00,
2013-06-12 18:32:00,85.0,71.0,-100.00,West,260,7.0,16.0,63,-99.99,,,-99.99,,2013-06-12 22:32:00,
2013-06-12 18:43:00,84.0,71.0,-100.00,WSW,245,9.0,13.0,64,-99.99,,,-99.99,,2013-06-12 22:43:00,
2013-06-12 18:52:00,85.0,70.0,-100.00,WSW,240,12.0,21.0,61,-99.99,,,-99.99,,2013-06-12 22:52:00,
2013-06-12 19:02:00,84.0,69.0,-100.00,SW,225,16.0,22.0,61,-99.99,,,-99.99,,2013-06-12 23:02:00,
2013-06-12 19:12:00,84.0,69.0,-100.00,SW,235,12.0,24.0,61,-99.99,,,-99.99,,2013-06-12 23:12:00,
2013-06-12 19:22:00,84.0,69.0,-100.00,SW,235,12.0,24.0,61,-99.99,,,-99.99,,2013-06-12 23:22:00,
2013-06-12 19:32:00,83.0,69.0,-100.00,SW,235,12.0,20.0,63,-99.99,,,-99.99,,2013-06-12 23:32:00,
2013-06-12 19:42:00,83.0,69.0,-100.00,SW,235,9.0,17.0,63,-99.99,,,-99.99,,2013-06-12 23:42:00,
2013-06-12 19:52:00,84.0,70.0,-100.00,SW,230,12.0,19.0,63,-99.99,,,-99.99,,2013-06-12 23:52:00,
2013-06-12 20:01:00,84.0,70.0,-100.00,SW,235,11.0,17.0,63,-99.99,,,-99.99,,2013-06-13 00:01:00,
2013-06-12 20:12:00,84.0,70.0,-100.00,SW,230,14.0,21.0,64,-99.99,,,-99.99,,2013-06-13 00:12:00,
2013-06-12 20:22:00,83.0,69.0,-100.00,SW,230,12.0,24.0,63,-99.99,,,-99.99,,2013-06-13 00:22:00,
2013-06-12 20:32:00,83.0,69.0,-100.00,SW,235,16.0,24.0,63,-99.99,,,-99.99,,2013-06-13 00:32:00,
2013-06-12 20:42:00,83.0,69.0,-100.00,SW,230,10.0,23.0,63,-99.99,,,-99.99,,2013-06-13 00:42:00,
2013-06-12 20:52:00,82.0,69.0,-100.00,WSW,245,9.0,17.0,65,-99.99,,,-99.99,,2013-06-13 00:52:00,
2013-06-12 21:01:00,81.0,69.0,-100.00,SW,235,7.0,13.0,67,-99.99,,,-99.99,,2013-06-13 01:01:00,
2013-06-12 21:12:00,81.0,69.0,-100.00,SW,230,7.0,12.0,68,-99.99,,,-99.99,,2013-06-13 01:12:00,
2013-06-12 21:22:00,81.0,69.0,-100.00,SW,230,7.0,12.0,68,-99.99,,,-99.99,,2013-06-13 01:22:00,
2013-06-12 21:32:00,80.0,69.0,-100.00,SW,230,9.0,14.0,69,-99.99,,,-99.99,,2013-06-13 01:32:00,
2013-06-12 21:43:00,80.0,69.0,-100.00,SW,225,9.0,14.0,70,-99.99,,,-99.99,,2013-06-13 01:43:00,
2013-06-12 21:53:00,80.0,69.0,-100.00,SW,225,9.0,14.0,70,-99.99,,,-99.99,,2013-06-13 01:53:00,
2013-06-12 22:02:00,79.0,69.0,-100.00,SW,220,7.0,14.0,72,-99.99,,,-99.99,,2013-06-13 02:02:00,
2013-06-12 22:12:00,79.0,70.0,-100.00,SW,230,9.0,14.0,74,-99.99,,,-99.99,,2013-06-13 02:12:00,
2013-06-12 22:22:00,79.0,70.0,-100.00,SW,230,9.0,14.0,74,-99.99,,,-99.99,,2013-06-13 02:22:00,
2013-06-12 22:33:00,79.0,70.0,-100.00,SW,220,10.0,17.0,75,-99.99,,,-99.99,,2013-06-13 02:33:00,
2013-06-12 22:43:00,79.0,70.0,-100.00,SW,220,10.0,17.0,75,-99.99,,,-99.99,,2013-06-13 02:43:00,
2013-06-12 22:52:00,79.0,71.0,-100.00,SW,225,10.0,17.0,77,-99.99,,,-99.99,,2013-06-13 02:52:00,
2013-06-12 23:02:00,79.0,71.0,-100.00,SW,225,10.0,17.0,77,-99.99,,,-99.99,,2013-06-13 03:02:00,
2013-06-12 23:12:00,79.0,71.0,-100.00,SW,225,10.0,17.0,77,-99.99,,,-99.99,,2013-06-13 03:12:00,
2013-06-12 23:22:00,78.0,71.0,-100.00,SW,225,10.0,16.0,78,-99.99,,,-99.99,,2013-06-13 03:22:00,
2013-06-12 23:52:00,78.0,71.0,-100.00,SW,230,12.0,18.0,80,-99.99,,,-99.99,,2013-06-13 03:52:00,